Flag for Cuba Weather past 2 weeks in Camagüey, Cuba

Now
90 °F

Scattered clouds.


Feels Like: 93 °F
Forecast: N/A
Wind: 16 mph from East

Location: Camaguey Aeropuerto

Current Time: Aug 3, 2015 at 5:23:47 PM

Latest Report: Aug 3, 2015 at 4:50 PM


Visibility: 6 mi

Pressure: 29.95 "Hg

Humidity: 49%

Dew point: 68 °F

Location of CamagüeyLocation

Historic Weather in Camagüey — Graph

°F

Camagüey temperature yesterday

Maximum temperature yesterday: 93 °F (at 4:50 PM)
Minimum temperature yesterday: 70 °F (at 6:50 PM)
Average temperature yesterday: 78 °F

Past Weeks' High & Low Weather Summary

 TemperatureHumidityPressure
High95 °F (Jul 25, 4:50 PM)94% (Jul 20, 2:50 AM)30.12 "Hg (Jul 20, 2:50 AM)
Low70 °F (Jul 25, 4:50 AM)34% (Jul 29, 4:51 PM)29.95 "Hg (Jul 25, 4:50 PM)
Average81 °F71%30.03 "Hg
* Reported Jul 19 3:50 PM — Aug 3 3:50 PM, Camagüey, Weather by CustomWeather, © 2015

Note: Actual official high and low records may vary slightly from our data, if they occured in-between our weather recording intervals... More about our weather records

Advertising

Camagüey weather history for previous 24 hours

 ConditionsComfort  
Time TempWeatherWind HumidityBarometerVisibility
3:50 PM
Mon, Aug 3
90 °FScattered clouds.13 mph46%29.95 "Hg6 mi
2:51 PM91 °FScattered clouds.13 mph44%29.98 "Hg6 mi
1:50 PM88 °FScattered clouds.13 mph52%29.98 "Hg6 mi
12:51 PM88 °FPartly sunny.12 mph52%30.01 "Hg6 mi
11:50 AM86 °FPartly sunny.12 mph62%30.04 "Hg6 mi
10:52 AM84 °FPartly sunny.14 mph70%30.01 "Hg6 mi
9:50 AM81 °FBroken clouds.9 mph84%30.01 "Hg6 mi
8:50 AM79 °FPartly sunny.6 mph84%30.01 "Hg6 mi
7:51 AM77 °FBroken clouds.7 mph89%30.01 "Hg6 mi
6:50 AM77 °FPassing clouds.5 mph89%29.98 "Hg5 mi
5:50 AM75 °FPassing clouds.5 mph89%29.98 "Hg6 mi
4:50 AM75 °FPassing clouds.3 mph89%29.98 "Hg6 mi
3:50 AM75 °FPassing clouds.7 mph89%29.98 "Hg6 mi
2:50 AM73 °FPassing clouds.2 mph89%29.98 "Hg6 mi
1:50 AM73 °FPassing clouds.6 mph89%30.01 "Hg6 mi
12:50 AM73 °FPassing clouds.2 mph83%30.01 "Hg6 mi
11:50 PM
Sun, Aug 2
72 °FPassing clouds.8 mph83%30.01 "Hg6 mi
10:51 PM72 °FPartly cloudy.6 mph83%30.04 "Hg6 mi
9:50 PM72 °FPartly cloudy.5 mph83%30.04 "Hg6 mi
8:51 PM72 °FLight rain. Partly cloudy.7 mph83%30.04 "Hg5 mi
7:51 PM72 °FThunderstorms. Broken clouds.8 mph78%30.01 "Hg4 mi
6:50 PM70 °FThunderstorms. Partly sunny.12 mph88%30.01 "Hg4 mi
6:01 PM72 °FStrong thunderstorms. Partly sunny.32 mph83%N/A1 mi
Weather by CustomWeather, © 2015

See weather overviewHow to use our weather pages